Hourly Weather Roundup
Issued by NWS Central Illinois

Home | Current Version | Previous Version | Text Only | Print | Product List | Glossary On
Versions: 1 2 3 4 5 6 7 8 9 10 11 12 13 14 15 16 17 18 19 20 21 22 23 24 25 26 27 28 29 30 31 32 33 34 35 36 37 38 39 40 41 42 43 44 45 46 47 48 49 50
000
NZUS43 KILX 051610
HWRILX

AREA WEATHER ROUNDUP
NATIONAL WEATHER SERVICE, LINCOLN IL
1000 AM CST FRI FEB 05 2016


CITY           SKY/WX    TMP DP  RH WIND       PRES   REMARKS
BLOOMINGTON    CLOUDY    29  22  75 NW8       30.40R WCI  21
CHAMPAIGN      CLOUDY    28  23  81 NW12      30.40R WCI  18
DANVILLE       CLOUDY    27  24  90 W8        30.37R WCI  19
DECATUR        CLOUDY    29  21  72 NW9       30.41R WCI  20
EFFINGHAM      SUNNY     32  26  78 NW7       30.44R WCI  26
FLORA          SUNNY     34  26  73 NW6       30.43R WCI  29
GALESBURG      MOSUNNY   27  20  75 N5        30.41R WCI  22
JACKSONVILLE   CLOUDY    30  24  77 NW6       30.43S WCI  24
LACON          CLOUDY    28  19  70 NW8       30.41R WCI  20
LAWRENCEVILLE  SUNNY     35  23  61 W7        30.43R WCI  29
LITCHFIELD     SUNNY     29  22  76 NW7       30.43S WCI  22
$$


CITY           SKY/WX    TMP DP  RH WIND       PRES   REMARKS
LINCOLN        CLOUDY    30  24  77 CALM      30.42R
MACOMB         PTSUNNY   26  21  79 NW5       30.45R WCI  21
MATTOON        CLOUDY    30  23  75 NW9       30.40R WCI  22
MT CARMEL AP   SUNNY     34  23  64 CALM      30.42S
OLNEY-NOBLE AP SUNNY     32  27  80 CALM      30.43S
PARIS          CLOUDY    29  26  88 NW7       30.41R WCI  22
PEORIA         CLOUDY    28  19  69 NW5       30.42R WCI  23
PONTIAC        CLOUDY    30  24  78 NW8       30.40R WCI  22
RANTOUL        CLOUDY    31  24  74 NW7       30.39R WCI  24
ROBINSON       SUNNY     33  24  69 W7        30.43S WCI  27
SPRINGFIELD    CLOUDY    31  22  69 NW5       30.43R WCI  26
TAYLORVILLE    PTSUNNY   30  23  74 N5        30.43R WCI  25
$$

...REGIONAL REPORTS...


CITY           SKY/WX    TMP DP  RH WIND       PRES   REMARKS
CHICAGO O`HARE CLOUDY    29  22  75 N12       30.35R WCI  19
KANKAKEE       CLOUDY    30  25  80 W9        30.38R WCI  22
MOLINE         SUNNY     29  18  63 CALM      30.41R
MOUNT STERLING PTSUNNY   26  21  80 NW3       30.42R
MOUNT VERNON   SUNNY     34  25  69 W3        30.44R
PITTSFIELD     CLOUDY    28  23  82 NW3       30.44S
QUINCY         CLOUDY    26  19  74 NW5       30.42S WCI  20
ROCKFORD       CLOUDY    26  19  74 N7        30.40R WCI  18
$$


CITY           SKY/WX    TMP DP  RH WIND       PRES   REMARKS
BURLINGTON     MOSUNNY   25  20  81 VRB3      30.42R
CEDAR RAPIDS   SUNNY     19  16  88 W3        30.40R
DES MOINES     CLOUDY    21  16  81 S6        30.41R WCI  13
KIRKSVILLE     MOSUNNY   25  17  72 S3        30.44R
OTTUMWA        CLOUDY    22  17  81 CALM      30.42R
ST LOUIS       CLOUDY    33  22  63 CALM      30.45R
$$


CITY           SKY/WX    TMP DP  RH WIND       PRES   REMARKS
TERRE HAUTE    SUNNY     32  22  66 W7        30.41R WCI  26
EVANSVILLE     SUNNY     40  24  53 SW7       30.44S
INDIANAPOLIS   MOSUNNY   33  20  58 S9        30.37S WCI  25
LAFAYETTE      PTSUNNY   31  25  78 W7        30.38R WCI  24
MADISON        PTSUNNY   23  16  74 NW6       30.36S WCI  16
MILWAUKEE      PTSUNNY   26  17  68 NW12      30.35S WCI  16
$$





USA.gov is the U.S. government's official web portal to all federal, state and local government web resources and services.